Year,Month,Day,Hour,Minute,Value (Times are PST for windgust in km/hr)
2012,01,26,00,01,4.80
2012,01,26,00,02,4.80
2012,01,26,00,03,3.20
2012,01,26,00,04,6.40
2012,01,26,00,05,1.60
2012,01,26,00,06,4.80
2012,01,26,00,07,11.30
2012,01,26,00,08,12.90
2012,01,26,00,09,8.10
2012,01,26,00,11,1.60
2012,01,26,00,13,1.60
2012,01,26,00,14,3.20
2012,01,26,00,16,3.20
2012,01,26,00,17,3.20
2012,01,26,00,18,1.60
2012,01,26,00,19,1.60
2012,01,26,00,21,4.80
2012,01,26,00,22,3.20
2012,01,26,00,23,4.80
2012,01,26,00,24,6.40
2012,01,26,00,25,3.20
2012,01,26,00,26,1.60
2012,01,26,00,27,9.60
2012,01,26,00,28,6.40
2012,01,26,00,29,3.20
2012,01,26,00,30,1.60
2012,01,26,00,32,3.20
2012,01,26,00,33,3.20
2012,01,26,00,36,6.40
2012,01,26,00,37,6.40
2012,01,26,00,38,3.20
2012,01,26,00,39,3.20
2012,01,26,00,40,9.60
2012,01,26,00,41,1.60
2012,01,26,00,43,6.40
2012,01,26,00,44,6.40
2012,01,26,00,45,6.40
2012,01,26,00,46,3.20
2012,01,26,00,48,4.80
2012,01,26,00,49,6.40
2012,01,26,00,51,6.40
2012,01,26,00,52,4.80
2012,01,26,00,53,6.40
2012,01,26,00,54,6.40
2012,01,26,00,55,6.40
2012,01,26,00,56,8.10
2012,01,26,00,57,8.10
2012,01,26,00,58,6.40
2012,01,26,00,59,14.50
2012,01,26,01,00,11.30
2012,01,26,01,01,8.10
2012,01,26,01,02,9.60
2012,01,26,01,03,11.30
2012,01,26,01,04,9.60
2012,01,26,01,05,9.60
2012,01,26,01,06,11.30
2012,01,26,01,07,14.50
2012,01,26,01,08,17.70
2012,01,26,01,09,17.70
2012,01,26,01,10,17.70
2012,01,26,01,11,16.10
2012,01,26,01,12,17.70
2012,01,26,01,13,22.50
2012,01,26,01,14,19.30
2012,01,26,01,15,20.90
2012,01,26,01,16,20.90
2012,01,26,01,17,24.20
2012,01,26,01,18,19.30
2012,01,26,01,19,22.50
2012,01,26,01,20,11.30
2012,01,26,01,21,19.30
2012,01,26,01,22,20.90
2012,01,26,01,23,19.30
2012,01,26,01,24,22.50
2012,01,26,01,25,40.20
2012,01,26,01,26,35.40
2012,01,26,01,27,32.20
2012,01,26,01,28,37.00
2012,01,26,01,29,37.00
2012,01,26,01,30,33.80
2012,01,26,01,31,27.40
2012,01,26,01,32,40.20
2012,01,26,01,33,37.00
2012,01,26,01,34,32.20
2012,01,26,01,35,38.60
2012,01,26,01,36,46.70
2012,01,26,01,37,46.70
2012,01,26,01,38,48.30
2012,01,26,01,39,43.50
2012,01,26,01,40,51.50
2012,01,26,01,41,48.30
2012,01,26,01,42,56.30
2012,01,26,01,43,49.90
2012,01,26,01,44,46.70
2012,01,26,01,45,37.00
2012,01,26,01,46,51.50
2012,01,26,01,47,41.80
2012,01,26,01,48,45.10
2012,01,26,01,49,51.50
2012,01,26,01,50,48.30
2012,01,26,01,51,56.30
2012,01,26,01,52,43.50
2012,01,26,01,53,29.00
2012,01,26,01,54,29.00
2012,01,26,01,55,61.20
2012,01,26,01,56,46.70
2012,01,26,01,57,61.20
2012,01,26,01,58,37.00
2012,01,26,01,59,57.90
2012,01,26,02,00,37.00
2012,01,26,02,01,38.60
2012,01,26,02,02,46.70
2012,01,26,02,03,62.70
2012,01,26,02,04,48.30
2012,01,26,02,05,33.80
2012,01,26,02,06,64.40
2012,01,26,02,07,35.40
2012,01,26,02,08,49.90
2012,01,26,02,09,77.30
2012,01,26,02,10,64.40
2012,01,26,02,11,59.50
2012,01,26,02,12,54.70
2012,01,26,02,13,37.00
2012,01,26,02,14,53.10
2012,01,26,02,15,33.80
2012,01,26,02,16,56.30
2012,01,26,02,17,62.70
2012,01,26,02,18,49.90
2012,01,26,02,19,66.00
2012,01,26,02,20,46.70
2012,01,26,02,21,53.10
2012,01,26,02,22,43.50
2012,01,26,02,23,54.70
2012,01,26,02,24,53.10
2012,01,26,02,25,37.00
2012,01,26,02,26,38.60
2012,01,26,02,27,67.60
2012,01,26,02,28,49.90
2012,01,26,02,29,49.90
2012,01,26,02,30,48.30
2012,01,26,02,31,49.90
2012,01,26,02,32,48.30
2012,01,26,02,33,43.50
2012,01,26,02,34,45.10
2012,01,26,02,35,29.00
2012,01,26,02,36,25.70
2012,01,26,02,37,45.10
2012,01,26,02,38,49.90
2012,01,26,02,39,46.70
2012,01,26,02,40,49.90
2012,01,26,02,41,37.00
2012,01,26,02,42,45.10
2012,01,26,02,43,46.70
2012,01,26,02,44,46.70
2012,01,26,02,45,33.80
2012,01,26,02,46,46.70
2012,01,26,02,47,40.20
2012,01,26,02,48,53.10
2012,01,26,02,49,53.10
2012,01,26,02,50,49.90
2012,01,26,02,51,37.00
2012,01,26,02,52,38.60
2012,01,26,02,53,24.20
2012,01,26,02,54,35.40
2012,01,26,02,55,32.20
2012,01,26,02,56,25.70
2012,01,26,02,57,17.70
2012,01,26,02,58,38.60
2012,01,26,02,59,53.10
2012,01,26,03,00,46.70
2012,01,26,03,01,38.60
2012,01,26,03,02,51.50
2012,01,26,03,03,37.00
2012,01,26,03,04,30.60
2012,01,26,03,05,43.50
2012,01,26,03,06,27.40
2012,01,26,03,07,35.40
2012,01,26,03,08,40.20
2012,01,26,03,09,27.40
2012,01,26,03,10,24.20
2012,01,26,03,11,38.60
2012,01,26,03,12,48.30
2012,01,26,03,13,53.10
2012,01,26,03,14,43.50
2012,01,26,03,15,35.40
2012,01,26,03,16,51.50
2012,01,26,03,17,41.80
2012,01,26,03,18,29.00
2012,01,26,03,19,33.80
2012,01,26,03,20,30.60
2012,01,26,03,21,16.10
2012,01,26,03,22,16.10
2012,01,26,03,23,16.10
2012,01,26,03,24,16.10
2012,01,26,03,25,32.20
2012,01,26,03,26,59.50
2012,01,26,03,27,45.10
2012,01,26,03,28,43.50
2012,01,26,03,29,37.00
2012,01,26,03,30,41.80
2012,01,26,03,31,37.00
2012,01,26,03,32,30.60
2012,01,26,03,33,14.50
2012,01,26,03,34,20.90
2012,01,26,03,35,12.90
2012,01,26,03,36,20.90
2012,01,26,03,37,37.00
2012,01,26,03,38,22.50
2012,01,26,03,39,30.60
2012,01,26,03,40,30.60
2012,01,26,03,41,38.60
2012,01,26,03,42,33.80
2012,01,26,03,43,30.60
2012,01,26,03,44,24.20
2012,01,26,03,45,29.00
2012,01,26,03,46,20.90
2012,01,26,03,47,24.20
2012,01,26,03,48,22.50
2012,01,26,03,49,19.30
2012,01,26,03,50,37.00
2012,01,26,03,51,20.90
2012,01,26,03,52,33.80
2012,01,26,03,53,32.20
2012,01,26,03,54,32.20
2012,01,26,03,55,24.20
2012,01,26,03,56,22.50
2012,01,26,03,57,14.50
2012,01,26,03,58,27.40
2012,01,26,03,59,27.40
2012,01,26,04,00,25.70
2012,01,26,04,01,30.60
2012,01,26,04,02,24.20
2012,01,26,04,03,22.50
2012,01,26,04,04,27.40
2012,01,26,04,05,25.70
2012,01,26,04,06,22.50
2012,01,26,04,07,29.00
2012,01,26,04,08,25.70
2012,01,26,04,09,14.50
2012,01,26,04,10,20.90
2012,01,26,04,11,25.70
2012,01,26,04,12,25.70
2012,01,26,04,13,22.50
2012,01,26,04,14,33.80
2012,01,26,04,15,37.00
2012,01,26,04,16,30.60
2012,01,26,04,17,19.30
2012,01,26,04,18,25.70
2012,01,26,04,19,17.70
2012,01,26,04,20,20.90
2012,01,26,04,21,19.30
2012,01,26,04,22,14.50
2012,01,26,04,23,17.70
2012,01,26,04,24,14.50
2012,01,26,04,25,16.10
2012,01,26,04,26,20.90
2012,01,26,04,27,22.50
2012,01,26,04,28,22.50
2012,01,26,04,29,12.90
2012,01,26,04,30,22.50
2012,01,26,04,31,11.30
2012,01,26,04,32,16.10
2012,01,26,04,33,22.50
2012,01,26,04,34,22.50
2012,01,26,04,35,20.90
2012,01,26,04,36,16.10
2012,01,26,04,37,20.90
2012,01,26,04,38,19.30
2012,01,26,04,39,19.30
2012,01,26,04,40,20.90
2012,01,26,04,41,19.30
2012,01,26,04,42,20.90
2012,01,26,04,43,20.90
2012,01,26,04,44,19.30
2012,01,26,04,45,17.70
2012,01,26,04,46,16.10
2012,01,26,04,47,11.30
2012,01,26,04,48,16.10
2012,01,26,04,49,16.10
2012,01,26,04,50,19.30
2012,01,26,04,51,19.30
2012,01,26,04,52,17.70
2012,01,26,04,53,19.30
2012,01,26,04,54,29.00
2012,01,26,04,55,25.70
2012,01,26,04,56,27.40
2012,01,26,04,57,24.20
2012,01,26,04,58,29.00
2012,01,26,04,59,20.90
2012,01,26,05,00,20.90
2012,01,26,05,01,27.40
2012,01,26,05,02,22.50
2012,01,26,05,03,22.50
2012,01,26,05,04,30.60
2012,01,26,05,05,20.90
2012,01,26,05,06,24.20
2012,01,26,05,07,20.90
2012,01,26,05,08,24.20
2012,01,26,05,09,29.00
2012,01,26,05,10,22.50
2012,01,26,05,11,29.00
2012,01,26,05,12,20.90
2012,01,26,05,13,25.70
2012,01,26,05,14,20.90
2012,01,26,05,15,20.90
2012,01,26,05,16,24.20
2012,01,26,05,17,14.50
2012,01,26,05,18,19.30
2012,01,26,05,19,20.90
2012,01,26,05,20,20.90
2012,01,26,05,21,22.50
2012,01,26,05,22,19.30
2012,01,26,05,23,17.70
2012,01,26,05,24,17.70
2012,01,26,05,25,12.90
2012,01,26,05,26,12.90
2012,01,26,05,27,12.90
2012,01,26,05,28,17.70
2012,01,26,05,29,16.10
2012,01,26,05,30,14.50
2012,01,26,05,31,32.20
2012,01,26,05,32,16.10
2012,01,26,05,33,16.10
2012,01,26,05,34,17.70
2012,01,26,05,35,14.50
2012,01,26,05,36,11.30
2012,01,26,05,37,20.90
2012,01,26,05,38,17.70
2012,01,26,05,39,17.70
2012,01,26,05,40,22.50
2012,01,26,05,41,17.70
2012,01,26,05,42,16.10
2012,01,26,05,43,17.70
2012,01,26,05,44,20.90
2012,01,26,05,45,22.50
2012,01,26,05,46,24.20
2012,01,26,05,47,25.70
2012,01,26,05,48,22.50
2012,01,26,05,49,20.90
2012,01,26,05,50,20.90
2012,01,26,05,51,20.90
2012,01,26,05,52,20.90
2012,01,26,05,53,16.10
2012,01,26,05,54,17.70
2012,01,26,05,55,22.50
2012,01,26,05,56,16.10
2012,01,26,05,57,11.30
2012,01,26,05,58,19.30
2012,01,26,05,59,19.30
2012,01,26,06,00,22.50
2012,01,26,06,01,22.50
2012,01,26,06,02,20.90
2012,01,26,06,03,22.50
2012,01,26,06,04,19.30
2012,01,26,06,05,17.70
2012,01,26,06,06,16.10
2012,01,26,06,07,17.70
2012,01,26,06,08,16.10
2012,01,26,06,09,17.70
2012,01,26,06,10,20.90
2012,01,26,06,11,25.70
2012,01,26,06,12,16.10
2012,01,26,06,13,19.30
2012,01,26,06,14,17.70
2012,01,26,06,15,16.10
2012,01,26,06,16,17.70
2012,01,26,06,17,14.50
2012,01,26,06,18,11.30
2012,01,26,06,19,20.90
2012,01,26,06,20,17.70
2012,01,26,06,21,16.10
2012,01,26,06,22,17.70
2012,01,26,06,23,19.30
2012,01,26,06,24,12.90
2012,01,26,06,25,20.90
2012,01,26,06,26,20.90
2012,01,26,06,27,17.70
2012,01,26,06,28,14.50
2012,01,26,06,29,17.70
2012,01,26,06,30,20.90
2012,01,26,06,31,17.70
2012,01,26,06,32,16.10
2012,01,26,06,33,19.30
2012,01,26,06,34,19.30
2012,01,26,06,35,17.70
2012,01,26,06,36,17.70
2012,01,26,06,37,20.90
2012,01,26,06,38,17.70
2012,01,26,06,39,11.30
2012,01,26,06,40,22.50
2012,01,26,06,41,9.60
2012,01,26,06,42,11.30
2012,01,26,06,43,22.50
2012,01,26,06,44,24.20
2012,01,26,06,45,17.70
2012,01,26,06,46,25.70
2012,01,26,06,47,20.90
2012,01,26,06,48,25.70
2012,01,26,06,49,20.90
2012,01,26,06,50,19.30
2012,01,26,06,51,17.70
2012,01,26,06,52,16.10
2012,01,26,06,53,17.70
2012,01,26,06,54,29.00
2012,01,26,06,55,17.70
2012,01,26,06,56,14.50
2012,01,26,06,57,17.70
2012,01,26,06,58,16.10
2012,01,26,06,59,16.10
2012,01,26,07,00,20.90
2012,01,26,07,01,20.90
2012,01,26,07,02,22.50
2012,01,26,07,03,12.90
2012,01,26,07,04,17.70
2012,01,26,07,05,19.30
2012,01,26,07,06,17.70
2012,01,26,07,07,25.70
2012,01,26,07,08,25.70
2012,01,26,07,09,19.30
2012,01,26,07,10,17.70
2012,01,26,07,11,16.10
2012,01,26,07,12,27.40
2012,01,26,07,13,17.70
2012,01,26,07,14,25.70
2012,01,26,07,15,17.70
2012,01,26,07,16,20.90
2012,01,26,07,17,24.20
2012,01,26,07,18,30.60
2012,01,26,07,19,22.50
2012,01,26,07,20,25.70
2012,01,26,07,21,24.20
2012,01,26,07,22,20.90
2012,01,26,07,23,24.20
2012,01,26,07,24,29.00
2012,01,26,07,25,27.40
2012,01,26,07,26,24.20
2012,01,26,07,27,24.20
2012,01,26,07,28,30.60
2012,01,26,07,29,25.70
2012,01,26,07,30,30.60
2012,01,26,07,31,30.60
2012,01,26,07,32,20.90
2012,01,26,07,33,20.90
2012,01,26,07,34,24.20
2012,01,26,07,35,22.50
2012,01,26,07,36,20.90
2012,01,26,07,37,20.90
2012,01,26,07,38,20.90
2012,01,26,07,39,27.40
2012,01,26,07,40,27.40
2012,01,26,07,41,25.70
2012,01,26,07,42,20.90
2012,01,26,07,43,25.70
2012,01,26,07,44,27.40
2012,01,26,07,45,30.60
2012,01,26,07,46,30.60
2012,01,26,07,47,22.50
2012,01,26,07,48,19.30
2012,01,26,07,49,20.90
2012,01,26,07,50,17.70
2012,01,26,07,51,17.70
2012,01,26,07,52,17.70
2012,01,26,07,53,14.50
2012,01,26,07,54,19.30
2012,01,26,07,55,22.50
2012,01,26,07,56,19.30
2012,01,26,07,57,24.20
2012,01,26,07,58,20.90
2012,01,26,07,59,20.90
2012,01,26,08,00,25.70
2012,01,26,08,01,30.60
2012,01,26,08,02,22.50
2012,01,26,08,03,24.20
2012,01,26,08,04,24.20
2012,01,26,08,05,24.20
2012,01,26,08,06,20.90
2012,01,26,08,07,30.60
2012,01,26,08,08,25.70
2012,01,26,08,09,22.50
2012,01,26,08,10,22.50
2012,01,26,08,11,22.50
2012,01,26,08,12,24.20
2012,01,26,08,13,20.90
2012,01,26,08,14,30.60
2012,01,26,08,15,27.40
2012,01,26,08,16,29.00
2012,01,26,08,17,24.20
2012,01,26,08,18,29.00
2012,01,26,08,19,24.20
2012,01,26,08,20,24.20
2012,01,26,08,21,20.90
2012,01,26,08,22,25.70
2012,01,26,08,23,20.90
2012,01,26,08,24,24.20
2012,01,26,08,25,19.30
2012,01,26,08,26,27.40
2012,01,26,08,27,11.30
2012,01,26,08,28,16.10
2012,01,26,08,29,19.30
2012,01,26,08,30,19.30
2012,01,26,08,31,22.50
2012,01,26,08,32,20.90
2012,01,26,08,33,22.50
2012,01,26,08,34,16.10
2012,01,26,08,35,20.90
2012,01,26,08,36,32.20
2012,01,26,08,37,22.50
2012,01,26,08,38,27.40
2012,01,26,08,39,25.70
2012,01,26,08,40,16.10
2012,01,26,08,41,17.70
2012,01,26,08,42,20.90
2012,01,26,08,43,19.30
2012,01,26,08,44,14.50
2012,01,26,08,45,24.20
2012,01,26,08,46,24.20
2012,01,26,08,47,17.70
2012,01,26,08,48,22.50
2012,01,26,08,49,22.50
2012,01,26,08,50,19.30
2012,01,26,08,51,20.90
2012,01,26,08,52,16.10
2012,01,26,08,53,20.90
2012,01,26,08,54,19.30
2012,01,26,08,55,20.90
2012,01,26,08,56,22.50
2012,01,26,08,57,19.30
2012,01,26,08,58,19.30
2012,01,26,08,59,27.40
2012,01,26,09,00,20.90
2012,01,26,09,01,20.90
2012,01,26,09,02,14.50
2012,01,26,09,03,24.20
2012,01,26,09,04,19.30
2012,01,26,09,05,19.30
2012,01,26,09,06,24.20
2012,01,26,09,07,20.90
2012,01,26,09,08,25.70
2012,01,26,09,09,29.00
2012,01,26,09,10,24.20
2012,01,26,09,11,20.90
2012,01,26,09,12,17.70
2012,01,26,09,13,19.30
2012,01,26,09,14,22.50
2012,01,26,09,15,20.90
2012,01,26,09,16,16.10
2012,01,26,09,17,14.50
2012,01,26,09,18,19.30
2012,01,26,09,19,20.90
2012,01,26,09,20,22.50
2012,01,26,09,21,24.20
2012,01,26,09,22,24.20
2012,01,26,09,23,16.10
2012,01,26,09,24,24.20
2012,01,26,09,25,24.20
2012,01,26,09,26,22.50
2012,01,26,09,27,25.70
2012,01,26,09,28,20.90
2012,01,26,09,29,17.70
2012,01,26,09,30,22.50
2012,01,26,09,31,25.70
2012,01,26,09,32,20.90
2012,01,26,09,33,20.90
2012,01,26,09,34,14.50
2012,01,26,09,35,17.70
2012,01,26,09,36,22.50
2012,01,26,09,37,27.40
2012,01,26,09,38,24.20
2012,01,26,09,39,27.40
2012,01,26,09,40,33.80
2012,01,26,09,41,32.20
2012,01,26,09,42,17.70
2012,01,26,09,43,22.50
2012,01,26,09,44,17.70
2012,01,26,09,45,19.30
2012,01,26,09,46,29.00
2012,01,26,09,47,29.00
2012,01,26,09,48,37.00
2012,01,26,09,49,32.20
2012,01,26,09,50,30.60
2012,01,26,09,51,30.60
2012,01,26,09,52,24.20
2012,01,26,09,53,32.20
2012,01,26,09,54,35.40
2012,01,26,09,55,38.60
2012,01,26,09,56,27.40
2012,01,26,09,57,29.00
2012,01,26,09,58,29.00
2012,01,26,09,59,37.00
2012,01,26,10,00,38.60
2012,01,26,10,01,25.70
2012,01,26,10,02,41.80
2012,01,26,10,03,33.80
2012,01,26,10,04,37.00
2012,01,26,10,05,30.60
2012,01,26,10,06,33.80
2012,01,26,10,07,35.40
2012,01,26,10,08,32.20
2012,01,26,10,09,32.20
2012,01,26,10,10,51.50
2012,01,26,10,11,30.60
2012,01,26,10,12,29.00
2012,01,26,10,13,35.40
2012,01,26,10,14,35.40
2012,01,26,10,15,30.60
2012,01,26,10,16,27.40
2012,01,26,10,17,27.40
2012,01,26,10,18,29.00
2012,01,26,10,19,30.60
2012,01,26,10,20,40.20
2012,01,26,10,21,32.20
2012,01,26,10,22,35.40
2012,01,26,10,23,35.40
2012,01,26,10,24,27.40
2012,01,26,10,25,35.40
2012,01,26,10,26,30.60
2012,01,26,10,27,30.60
2012,01,26,10,28,22.50
2012,01,26,10,29,22.50
2012,01,26,10,30,20.90
2012,01,26,10,31,16.10
2012,01,26,10,32,19.30
2012,01,26,10,33,17.70
2012,01,26,10,34,27.40
2012,01,26,10,35,29.00
2012,01,26,10,36,25.70
2012,01,26,10,37,22.50
2012,01,26,10,38,22.50
2012,01,26,10,39,16.10
2012,01,26,10,40,16.10
2012,01,26,10,41,24.20
2012,01,26,10,42,24.20
2012,01,26,10,43,24.20
2012,01,26,10,44,17.70
2012,01,26,10,45,19.30
2012,01,26,10,46,12.90
2012,01,26,10,47,17.70
2012,01,26,10,48,11.30
2012,01,26,10,49,11.30
2012,01,26,10,50,22.50
2012,01,26,10,51,20.90
2012,01,26,10,52,17.70
2012,01,26,10,53,20.90
2012,01,26,10,54,27.40
2012,01,26,10,55,29.00
2012,01,26,10,56,32.20
2012,01,26,10,57,25.70
2012,01,26,10,58,19.30
2012,01,26,10,59,20.90
2012,01,26,11,00,27.40
2012,01,26,11,01,20.90
2012,01,26,11,02,27.40
2012,01,26,11,03,27.40
2012,01,26,11,04,20.90
2012,01,26,11,05,20.90
2012,01,26,11,06,20.90
2012,01,26,11,07,19.30
2012,01,26,11,08,24.20
2012,01,26,11,09,22.50
2012,01,26,11,10,24.20
2012,01,26,11,11,19.30
2012,01,26,11,12,19.30
2012,01,26,11,13,19.30
2012,01,26,11,14,25.70
2012,01,26,11,15,22.50
2012,01,26,11,16,11.30
2012,01,26,11,17,30.60
2012,01,26,11,18,29.00
2012,01,26,11,19,30.60
2012,01,26,11,20,20.90
2012,01,26,11,21,17.70
2012,01,26,11,22,27.40
2012,01,26,11,23,27.40
2012,01,26,11,24,24.20
2012,01,26,11,25,11.30
2012,01,26,11,26,11.30
2012,01,26,11,27,9.60
2012,01,26,11,28,25.70
2012,01,26,11,29,19.30
2012,01,26,11,30,25.70
2012,01,26,11,31,20.90
2012,01,26,11,32,17.70
2012,01,26,11,33,20.90
2012,01,26,11,34,29.00
2012,01,26,11,35,25.70
2012,01,26,11,36,20.90
2012,01,26,11,37,25.70
2012,01,26,11,38,29.00
2012,01,26,11,39,22.50
2012,01,26,11,40,24.20
2012,01,26,11,41,19.30
2012,01,26,11,42,27.40
2012,01,26,11,43,20.90
2012,01,26,11,44,25.70
2012,01,26,11,45,25.70
2012,01,26,11,46,27.40
2012,01,26,11,47,22.50
2012,01,26,11,48,27.40
2012,01,26,11,49,25.70
2012,01,26,11,50,20.90
2012,01,26,11,51,32.20
2012,01,26,11,52,29.00
2012,01,26,11,53,25.70
2012,01,26,11,54,35.40
2012,01,26,11,55,35.40
2012,01,26,11,56,37.00
2012,01,26,11,57,30.60
2012,01,26,11,58,30.60
2012,01,26,11,59,30.60
2012,01,26,12,00,33.80
2012,01,26,12,01,30.60
2012,01,26,12,02,30.60
2012,01,26,12,03,33.80
2012,01,26,12,04,30.60
2012,01,26,12,05,27.40
2012,01,26,12,06,27.40
2012,01,26,12,07,29.00
2012,01,26,12,08,25.70
2012,01,26,12,09,30.60
2012,01,26,12,10,22.50
2012,01,26,12,11,27.40
2012,01,26,12,12,27.40
2012,01,26,12,13,32.20
2012,01,26,12,14,38.60
2012,01,26,12,15,27.40
2012,01,26,12,16,27.40
2012,01,26,12,17,20.90
2012,01,26,12,18,19.30
2012,01,26,12,19,29.00
2012,01,26,12,20,25.70
2012,01,26,12,21,35.40
2012,01,26,12,22,20.90
2012,01,26,12,23,22.50
2012,01,26,12,24,22.50
2012,01,26,12,25,35.40
2012,01,26,12,26,24.20
2012,01,26,12,27,32.20
2012,01,26,12,28,20.90
2012,01,26,12,29,20.90
2012,01,26,12,30,20.90
2012,01,26,12,31,24.20
2012,01,26,12,32,25.70
2012,01,26,12,33,29.00
2012,01,26,12,34,30.60
2012,01,26,12,35,32.20
2012,01,26,12,36,38.60
2012,01,26,12,37,22.50
2012,01,26,12,38,19.30
2012,01,26,12,39,22.50
2012,01,26,12,40,24.20
2012,01,26,12,41,19.30
2012,01,26,12,42,19.30
2012,01,26,12,43,24.20
2012,01,26,12,44,37.00
2012,01,26,12,45,27.40
2012,01,26,12,46,20.90
2012,01,26,12,47,22.50
2012,01,26,12,48,27.40
2012,01,26,12,49,25.70
2012,01,26,12,50,19.30
2012,01,26,12,51,25.70
2012,01,26,12,52,25.70
2012,01,26,12,53,37.00
2012,01,26,12,54,20.90
2012,01,26,12,55,33.80
2012,01,26,12,56,30.60
2012,01,26,12,57,24.20
2012,01,26,12,58,30.60
2012,01,26,12,59,24.20
2012,01,26,13,00,32.20
2012,01,26,13,01,25.70
2012,01,26,13,02,30.60
2012,01,26,13,03,20.90
2012,01,26,13,04,20.90
2012,01,26,13,05,32.20
2012,01,26,13,06,30.60
2012,01,26,13,07,32.20
2012,01,26,13,08,24.20
2012,01,26,13,09,27.40
2012,01,26,13,10,20.90
2012,01,26,13,11,12.90
2012,01,26,13,12,19.30
2012,01,26,13,13,8.10
2012,01,26,13,14,14.50
2012,01,26,13,15,12.90
2012,01,26,13,16,20.90
2012,01,26,13,17,14.50
2012,01,26,13,18,25.70
2012,01,26,13,19,22.50
2012,01,26,13,20,30.60
2012,01,26,13,21,27.40
2012,01,26,13,22,22.50
2012,01,26,13,23,29.00
2012,01,26,13,24,25.70
2012,01,26,13,25,25.70
2012,01,26,13,26,24.20
2012,01,26,13,27,30.60
2012,01,26,13,28,30.60
2012,01,26,13,29,27.40
2012,01,26,13,30,27.40
2012,01,26,13,31,20.90
2012,01,26,13,32,29.00
2012,01,26,13,33,19.30
2012,01,26,13,34,25.70
2012,01,26,13,35,25.70
2012,01,26,13,36,22.50
2012,01,26,13,37,32.20
2012,01,26,13,38,25.70
2012,01,26,13,39,19.30
2012,01,26,13,40,16.10
2012,01,26,13,41,16.10
2012,01,26,13,42,27.40
2012,01,26,13,43,22.50
2012,01,26,13,44,25.70
2012,01,26,13,45,27.40
2012,01,26,13,46,24.20
2012,01,26,13,47,19.30
2012,01,26,13,48,20.90
2012,01,26,13,49,29.00
2012,01,26,13,50,30.60
2012,01,26,13,51,20.90
2012,01,26,13,52,24.20
2012,01,26,13,53,27.40
2012,01,26,13,54,20.90
2012,01,26,13,55,29.00
2012,01,26,13,56,27.40
2012,01,26,13,57,24.20
2012,01,26,13,58,25.70
2012,01,26,13,59,16.10
2012,01,26,14,00,30.60
2012,01,26,14,01,25.70
2012,01,26,14,02,25.70
2012,01,26,14,03,22.50
2012,01,26,14,04,22.50
2012,01,26,14,05,25.70
2012,01,26,14,06,20.90
2012,01,26,14,07,25.70
2012,01,26,14,08,33.80
2012,01,26,14,09,35.40
2012,01,26,14,10,22.50
2012,01,26,14,11,24.20
2012,01,26,14,12,22.50
2012,01,26,14,13,33.80
2012,01,26,14,14,19.30
2012,01,26,14,15,16.10
2012,01,26,14,16,29.00
2012,01,26,14,17,30.60
2012,01,26,14,18,24.20
2012,01,26,14,19,19.30
2012,01,26,14,20,25.70
2012,01,26,14,21,25.70
2012,01,26,14,22,17.70
2012,01,26,14,23,27.40
2012,01,26,14,24,24.20
2012,01,26,14,25,25.70
2012,01,26,14,26,27.40
2012,01,26,14,27,24.20
2012,01,26,14,28,27.40
2012,01,26,14,29,33.80
2012,01,26,14,30,29.00
2012,01,26,14,31,17.70
2012,01,26,14,32,20.90
2012,01,26,14,33,30.60
2012,01,26,14,34,24.20
2012,01,26,14,35,24.20
2012,01,26,14,36,22.50
2012,01,26,14,37,20.90
2012,01,26,14,38,22.50
2012,01,26,14,39,19.30
2012,01,26,14,40,25.70
2012,01,26,14,41,22.50
2012,01,26,14,42,20.90
2012,01,26,14,43,29.00
2012,01,26,14,44,20.90
2012,01,26,14,45,30.60
2012,01,26,14,46,24.20
2012,01,26,14,47,24.20
2012,01,26,14,48,19.30
2012,01,26,14,49,20.90
2012,01,26,14,50,24.20
2012,01,26,14,51,17.70
2012,01,26,14,52,16.10
2012,01,26,14,53,29.00
2012,01,26,14,54,24.20
2012,01,26,14,55,16.10
2012,01,26,14,56,19.30
2012,01,26,14,57,19.30
2012,01,26,14,58,25.70
2012,01,26,14,59,29.00
2012,01,26,15,00,27.40
2012,01,26,15,01,27.40
2012,01,26,15,02,14.50
2012,01,26,15,03,25.70
2012,01,26,15,04,19.30
2012,01,26,15,05,24.20
2012,01,26,15,06,20.90
2012,01,26,15,07,25.70
2012,01,26,15,08,24.20
2012,01,26,15,09,30.60
2012,01,26,15,10,25.70
2012,01,26,15,11,25.70
2012,01,26,15,12,22.50
2012,01,26,15,13,24.20
2012,01,26,15,14,24.20
2012,01,26,15,15,20.90
2012,01,26,15,16,19.30
2012,01,26,15,17,19.30
2012,01,26,15,18,17.70
2012,01,26,15,19,19.30
2012,01,26,15,20,16.10
2012,01,26,15,21,14.50
2012,01,26,15,22,16.10
2012,01,26,15,23,24.20
2012,01,26,15,24,25.70
2012,01,26,15,25,19.30
2012,01,26,15,26,12.90
2012,01,26,15,27,22.50
2012,01,26,15,28,25.70
2012,01,26,15,29,16.10
2012,01,26,15,30,12.90
2012,01,26,15,31,17.70
2012,01,26,15,32,24.20
2012,01,26,15,33,19.30
2012,01,26,15,34,17.70
2012,01,26,15,35,16.10
2012,01,26,15,36,19.30
2012,01,26,15,37,20.90
2012,01,26,15,38,11.30
2012,01,26,15,39,16.10
2012,01,26,15,40,22.50
2012,01,26,15,41,19.30
2012,01,26,15,42,9.60
2012,01,26,15,43,16.10
2012,01,26,15,44,19.30
2012,01,26,15,45,17.70
2012,01,26,15,46,16.10
2012,01,26,15,47,8.10
2012,01,26,15,48,11.30
2012,01,26,15,49,14.50
2012,01,26,15,50,17.70
2012,01,26,15,51,16.10
2012,01,26,15,52,20.90
2012,01,26,15,53,14.50
2012,01,26,15,54,24.20
2012,01,26,15,55,20.90
2012,01,26,15,56,20.90
2012,01,26,15,57,19.30
2012,01,26,15,58,17.70
2012,01,26,15,59,9.60
2012,01,26,16,00,8.10
2012,01,26,16,01,8.10
2012,01,26,16,02,9.60
2012,01,26,16,03,20.90
2012,01,26,16,04,17.70
2012,01,26,16,05,12.90
2012,01,26,16,06,14.50
2012,01,26,16,07,17.70
2012,01,26,16,08,16.10
2012,01,26,16,09,8.10
2012,01,26,16,10,12.90
2012,01,26,16,11,9.60
2012,01,26,16,12,8.10
2012,01,26,16,13,16.10
2012,01,26,16,14,14.50
2012,01,26,16,15,11.30
2012,01,26,16,16,16.10
2012,01,26,16,17,17.70
2012,01,26,16,18,16.10
2012,01,26,16,19,17.70
2012,01,26,16,20,17.70
2012,01,26,16,21,8.10
2012,01,26,16,22,1.60
2012,01,26,16,23,9.60
2012,01,26,16,24,22.50
2012,01,26,16,25,11.30
2012,01,26,16,26,16.10
2012,01,26,16,27,9.60
2012,01,26,16,28,16.10
2012,01,26,16,29,9.60
2012,01,26,16,30,6.40
2012,01,26,16,31,4.80
2012,01,26,16,32,4.80
2012,01,26,16,33,8.10
2012,01,26,16,34,11.30
2012,01,26,16,35,9.60
2012,01,26,16,36,11.30
2012,01,26,16,37,16.10
2012,01,26,16,38,6.40
2012,01,26,16,39,9.60
2012,01,26,16,40,9.60
2012,01,26,16,41,11.30
2012,01,26,16,42,16.10
2012,01,26,16,43,11.30
2012,01,26,16,44,14.50
2012,01,26,16,45,16.10
2012,01,26,16,46,11.30
2012,01,26,16,47,11.30
2012,01,26,16,48,11.30
2012,01,26,16,49,17.70
2012,01,26,16,50,8.10
2012,01,26,16,51,22.50
2012,01,26,16,52,17.70
2012,01,26,16,53,11.30
2012,01,26,16,54,16.10
2012,01,26,16,55,19.30
2012,01,26,16,56,14.50
2012,01,26,16,57,17.70
2012,01,26,16,58,8.10
2012,01,26,16,59,11.30
2012,01,26,17,00,4.80
2012,01,26,17,01,11.30
2012,01,26,17,02,14.50
2012,01,26,17,03,16.10
2012,01,26,17,04,17.70
2012,01,26,17,05,20.90
2012,01,26,17,06,17.70
2012,01,26,17,07,20.90
2012,01,26,17,08,19.30
2012,01,26,17,09,20.90
2012,01,26,17,10,11.30
2012,01,26,17,11,17.70
2012,01,26,17,12,24.20
2012,01,26,17,13,14.50
2012,01,26,17,14,9.60
2012,01,26,17,15,14.50
2012,01,26,17,16,22.50
2012,01,26,17,17,20.90
2012,01,26,17,18,20.90
2012,01,26,17,19,22.50
2012,01,26,17,20,11.30
2012,01,26,17,21,16.10
2012,01,26,17,22,16.10
2012,01,26,17,23,11.30
2012,01,26,17,24,16.10
2012,01,26,17,25,9.60
2012,01,26,17,26,9.60
2012,01,26,17,27,14.50
2012,01,26,17,28,14.50
2012,01,26,17,29,17.70
2012,01,26,17,30,12.90
2012,01,26,17,31,8.10
2012,01,26,17,32,14.50
2012,01,26,17,33,14.50